Terminal Aerodrome Forecast
Issued by NWS Billings, MT

Home | Current Version | Previous Version | Graphics & Text | Print | Product List | Glossary On
Versions: 1 2 3 4 5 6 7 8 9 10 11 12 13 14 15 16 17 18 19 20 21 22 23 24 25 26 27 28 29 30 31 32 33 34 35 36 37 38 39 40 41 42 43 44 45 46 47
000
FTUS45 KBYZ 170121 AAA
TAFMLS
TAF AMD
KMLS 170121Z 1701/1724 15008KT P6SM OVC009
     FM170600 15009KT 6SM BR BKN005 OVC012
     FM171400 VRB03KT P6SM BKN015 OVC100
     FM172000 VRB03KT P6SM -SN OVC015=

USA.gov is the U.S. government's official web portal to all federal, state and local government web resources and services.